LBT19D LDDU-LIPZ

Flight info

Callsign LBT19D
Flight time 1h 7m
Altitude 36000
Route AMUGO DCT RILIM DCT NUTRO DCT LAPVO DCT MASEG DCT ANC DCT LANLI DCT AMLON DCT BELOV L612 ARDAM Z456 LOBSI DCT OTGIG
Aircraft A320/M-SDE3FGHIRWY/LB1

Departure

Time 2025-10-26 11:48
Airport Dubrovnik Ruđer Bošković Airport (LDDU)

Arrival

Time 2025-10-26 12:55
Airport Venice Marco Polo Airport (LIPZ)
Time Latitude Longitude Altitude Speed Heading
2025-10-26 11:27 42.56143 18.26151 534 ft 0 kts 208°
2025-10-26 11:40 42.56145 18.26153 561 ft 1 kts 208°
2025-10-26 11:40 42.56161 18.26165 534 ft 3 kts 216°
2025-10-26 11:41 42.56189 18.26219 534 ft 2 kts 285°
2025-10-26 11:41 42.56187 18.26228 534 ft 0 kts 297°
2025-10-26 11:43 42.56220 18.26140 534 ft 13 kts 298°
2025-10-26 11:44 42.56343 18.25832 534 ft 23 kts 298°
2025-10-26 11:44 42.56522 18.25386 534 ft 29 kts 298°
2025-10-26 11:45 42.56683 18.24977 533 ft 15 kts 298°
2025-10-26 11:45 42.56731 18.24855 534 ft 15 kts 298°
2025-10-26 11:46 42.56929 18.24732 533 ft 11 kts 54°
2025-10-26 11:46 42.56885 18.24937 533 ft 18 kts 118°
2025-10-26 11:47 42.56330 18.26336 533 ft 142 kts 118°
2025-10-26 11:47 42.55232 18.29101 1480 ft 170 kts 117°
2025-10-26 11:48 42.54057 18.32072 2408 ft 199 kts 121°
2025-10-26 11:48 42.51717 18.33880 3125 ft 212 kts 198°
2025-10-26 11:49 42.49393 18.31509 4591 ft 216 kts 209°
2025-10-26 11:49 42.45017 18.29689 6823 ft 223 kts 198°
2025-10-26 11:50 42.40488 18.28061 8965 ft 223 kts 217°
2025-10-26 11:51 42.39186 18.24485 10032 ft 239 kts 277°
2025-10-26 11:51 42.40220 18.19829 10975 ft 268 kts 285°
2025-10-26 11:52 42.41377 18.15009 12596 ft 270 kts 285°
2025-10-26 11:52 42.42534 18.10112 13797 ft 287 kts 285°
2025-10-26 11:52 42.43157 18.07439 13919 ft 309 kts 285°
2025-10-26 11:53 42.44502 18.01652 14694 ft 329 kts 285°
2025-10-26 11:53 42.45876 17.95705 16010 ft 332 kts 285°
2025-10-26 11:54 42.47941 17.86746 17978 ft 335 kts 284°
2025-10-26 11:55 42.49326 17.80697 19044 ft 338 kts 284°
2025-10-26 11:55 42.50726 17.74568 20046 ft 343 kts 284°
2025-10-26 11:55 42.51433 17.71478 20555 ft 344 kts 284°
2025-10-26 11:56 42.53572 17.62089 22000 ft 350 kts 284°
2025-10-26 11:56 42.54282 17.58963 22467 ft 352 kts 283°
2025-10-26 11:57 42.55325 17.52441 23351 ft 356 kts 279°
2025-10-26 11:57 42.56329 17.45834 24094 ft 359 kts 279°
2025-10-26 11:59 42.58859 17.29059 25957 ft 366 kts 279°
2025-10-26 12:00 42.62424 17.05018 28312 ft 376 kts 279°
2025-10-26 12:03 42.67347 16.73526 31350 ft 376 kts 282°
2025-10-26 12:04 42.72176 16.49997 33879 ft 364 kts 281°
2025-10-26 12:07 42.77992 16.20394 35776 ft 359 kts 280°
2025-10-26 12:09 42.82447 15.97402 35799 ft 359 kts 280°
2025-10-26 12:11 42.88099 15.67861 35779 ft 358 kts 280°
2025-10-26 12:13 42.92425 15.44956 35788 ft 356 kts 279°
2025-10-26 12:15 42.97906 15.15517 35782 ft 355 kts 279°
2025-10-26 12:17 43.02113 14.92627 35786 ft 355 kts 279°
2025-10-26 12:19 43.07458 14.63154 35768 ft 355 kts 278°
2025-10-26 12:21 43.11558 14.40140 35783 ft 356 kts 278°
2025-10-26 12:23 43.18337 14.11210 35772 ft 379 kts 301°
2025-10-26 12:25 43.30497 13.92089 35754 ft 380 kts 300°
2025-10-26 12:27 43.45438 13.68324 35795 ft 376 kts 300°
2025-10-26 12:28 43.57365 13.49192 35834 ft 379 kts 302°
2025-10-26 12:31 43.78888 13.31307 35755 ft 405 kts 317°
2025-10-26 12:32 43.96033 13.17800 35755 ft 406 kts 317°
2025-10-26 12:35 44.18208 13.00211 33937 ft 411 kts 316°
2025-10-26 12:36 44.35897 12.86071 28032 ft 412 kts 317°
2025-10-26 12:38 44.52696 12.72611 23610 ft 387 kts 318°
2025-10-26 12:39 44.57322 12.68869 22361 ft 379 kts 319°
2025-10-26 12:39 44.61827 12.65156 21027 ft 374 kts 319°
2025-10-26 12:40 44.66193 12.61331 19563 ft 366 kts 320°
2025-10-26 12:40 44.68331 12.59418 18771 ft 363 kts 320°
2025-10-26 12:40 44.72548 12.55645 17201 ft 359 kts 322°
2025-10-26 12:41 44.76709 12.51952 15987 ft 345 kts 322°
2025-10-26 12:41 44.80712 12.48409 15049 ft 337 kts 322°
2025-10-26 12:42 44.86624 12.43150 13759 ft 329 kts 323°
2025-10-26 12:43 44.90462 12.39736 12673 ft 323 kts 323°
2025-10-26 12:43 44.94245 12.36357 11694 ft 321 kts 324°
2025-10-26 12:43 44.96125 12.34672 11222 ft 319 kts 324°
2025-10-26 12:44 44.99848 12.31333 10428 ft 314 kts 324°
2025-10-26 12:44 45.03397 12.28171 10189 ft 290 kts 324°
2025-10-26 12:45 45.06715 12.25198 9878 ft 277 kts 324°
2025-10-26 12:45 45.09966 12.22271 9724 ft 277 kts 324°
2025-10-26 12:46 45.15304 12.19014 8218 ft 274 kts 343°
2025-10-26 12:47 45.18907 12.17762 7256 ft 260 kts 342°
2025-10-26 12:47 45.20611 12.17173 6868 ft 251 kts 342°
2025-10-26 12:47 45.23877 12.16039 6138 ft 234 kts 342°
2025-10-26 12:48 45.27020 12.14931 5374 ft 234 kts 342°
2025-10-26 12:48 45.28608 12.14369 5034 ft 235 kts 342°
2025-10-26 12:49 45.31734 12.13405 4426 ft 226 kts 355°
2025-10-26 12:49 45.35866 12.16421 3605 ft 232 kts 40°
2025-10-26 12:50 45.39401 12.20945 2668 ft 219 kts 40°
2025-10-26 12:51 45.41595 12.23751 2115 ft 202 kts 40°
2025-10-26 12:51 45.42608 12.25047 1828 ft 189 kts 41°
2025-10-26 12:51 45.44444 12.27397 1360 ft 169 kts 41°
2025-10-26 12:52 45.46876 12.30514 715 ft 150 kts 41°
2025-10-26 12:52 45.47648 12.31505 514 ft 149 kts 42°
2025-10-26 12:53 45.49168 12.33466 117 ft 147 kts 43°
2025-10-26 12:53 45.50461 12.35122 13 ft 68 kts 42°
2025-10-26 12:54 45.50865 12.35444 16 ft 10 kts 12°
2025-10-26 12:54 45.50935 12.35461 17 ft 13 kts 359°
2025-10-26 12:55 45.50967 12.35269 17 ft 12 kts 258°
2025-10-26 12:56 45.50855 12.35074 16 ft 15 kts 222°
2025-10-26 12:56 45.50680 12.34848 16 ft 16 kts 221°
2025-10-26 12:57 45.50603 12.34603 17 ft 16 kts 267°
2025-10-26 12:57 45.50560 12.34377 16 ft 12 kts 222°
2025-10-26 12:58 45.50493 12.34290 16 ft 4 kts 267°
2025-10-26 12:58 45.50492 12.34229 16 ft 3 kts 267°